Weather History for PAOM - August, 2013

Change the Weather History Date:

Saturday, August 24, 2013

  Actual Average Record
Temperature  
Mean Temperature 45 °F 49 °F  
Max Temperature 53 °F 55 °F 70 °F (2008)
Min Temperature 36 °F 44 °F 29 °F (2002)
Degree Days  
Heating Degree Days 20 16  
Month to date heating degree days 242 350  
Since 1 June heating degree days 1125 1266  
Since 1 July heating degree days 649 750  
Cooling Degree Days 0    
Month to date cooling degree days 0  
Year to date cooling degree days 7  
Since 1 June cooling degree days 7  
Moisture  
Dew Point 38 °F    
Average Humidity 0    
Maximum Humidity 0    
Minimum Humidity 0    
Precipitation  
Precipitation 0.00 in 0.11 in 1.27 in (1946)
Month to date precipitation 3.67 2.55  
Year to date precipitation 12.57 9.78  
Snow  
Snow 0.00 in 0.00 in 0.00 in (2015)
Month to date snowfall 0.0 0.0  
Since 1 June snowfall 0.1 0.3  
Since 1 July snowfall 0.0 0.0  
Snow Depth 0.00 in    
Sea Level Pressure  
Sea Level Pressure 29.96 in    
Wind  
Wind Speed 4 mph (SE)    
Max Wind Speed 12 mph    
Max Gust Speed 14 mph    
Visibility 10 miles    
Events      
T = Trace of Precipitation, MM = Missing Value Source: NWS Daily Summary

Daily Weather History Graph

Daily Weather History Graph

Search for Another Location

Airport or City:

Trip Planner

Search our weather history database for the weather conditions in past years. The results will help you decide how hot, cold, wet, or windy it might be!

Date:

Astronomy

Aug. 24, 2013 Rise Set
Actual Time 7:20 AM AKDT 10:45 PM AKDT
Civil Twilight 6:21 AM AKDT 11:43 PM AKDT
Nautical Twilight 4:48 AM AKDT 1:13 AM AKDT
Astronomical Twilight Sun does not set Sun does not set
Moon 10:45 PM AKDT (8/24) 1:28 PM AKDT (8/24)
Length of Visible Light 17h 22m
Length of Day
15h 25m
Waning Gibbous, 83% of the Moon is Illuminated
Aug 24
Waning Gibbous
Aug 28
Last Quarter
Sep 5
New
Sep 12
First Quarter
Sep 19
Full

Hourly Weather History & Observations

Time (AKDT) Temp. Windchill Dew Point Humidity Pressure Visibility Wind Dir Wind Speed Gust Speed Precip Events Conditions
12:53 AM 45.0 °F 43.5 °F 36.0 °F 71% 29.93 in 10.0 mi North 3.5 mph - N/A   Scattered Clouds
1:53 AM 43.0 °F 39.5 °F 36.0 °F 76% 29.95 in 10.0 mi North 5.8 mph - N/A   Scattered Clouds
2:53 AM 43.0 °F - 35.1 °F 74% 29.96 in 10.0 mi Calm Calm - N/A   Scattered Clouds
3:53 AM 39.9 °F - 35.1 °F 83% 29.98 in 10.0 mi Calm Calm - N/A   Clear
4:53 AM 39.0 °F - 34.0 °F 82% 29.99 in 10.0 mi Calm Calm - N/A   Clear
5:53 AM 37.0 °F - 32.0 °F 82% 29.99 in 10.0 mi Calm Calm - N/A   Clear
6:53 AM 37.9 °F - 32.0 °F 79% 29.99 in 10.0 mi Calm Calm - N/A   Clear
7:53 AM 36.0 °F 33.3 °F 33.1 °F 89% 30.00 in 10.0 mi NW 3.5 mph - N/A   Partly Cloudy
8:53 AM 39.9 °F - 34.0 °F 79% 30.01 in 10.0 mi Calm Calm - N/A   Scattered Clouds
9:53 AM 45.0 °F - 36.0 °F 71% 30.01 in 10.0 mi Calm Calm - N/A   Scattered Clouds
10:53 AM 48.0 °F - 37.0 °F 66% 30.00 in 10.0 mi Calm Calm - N/A   Scattered Clouds
11:53 AM 51.1 °F - 37.0 °F 59% 29.99 in 10.0 mi Calm Calm - N/A   Scattered Clouds
12:53 PM 50.0 °F - 39.0 °F 66% 29.99 in 10.0 mi South 5.8 mph - N/A   Mostly Cloudy
1:53 PM 51.1 °F - 39.0 °F 63% 29.99 in 10.0 mi SSW 4.6 mph - N/A   Scattered Clouds
2:53 PM 52.0 °F - 39.9 °F 63% 29.98 in 10.0 mi South 5.8 mph - N/A   Scattered Clouds
3:53 PM 52.0 °F - 39.0 °F 61% 29.97 in 10.0 mi SW 5.8 mph - N/A   Scattered Clouds
4:53 PM 53.1 °F - 39.9 °F 61% 29.96 in 10.0 mi SSE 4.6 mph - N/A   Scattered Clouds
5:53 PM 53.1 °F - 41.0 °F 64% 29.95 in 10.0 mi SSE 6.9 mph - N/A   Scattered Clouds
6:53 PM 53.1 °F - 44.1 °F 71% 29.92 in 10.0 mi SE 8.1 mph - N/A   Partly Cloudy
7:53 PM 53.1 °F - 44.1 °F 71% 29.91 in 10.0 mi SE 6.9 mph - N/A   Mostly Cloudy
8:53 PM 52.0 °F - 44.1 °F 74% 29.89 in 10.0 mi East 6.9 mph - N/A   Clear
9:53 PM 51.1 °F - 44.1 °F 77% 29.88 in 10.0 mi East 5.8 mph - N/A   Mostly Cloudy
10:53 PM 48.0 °F - 43.0 °F 83% 29.86 in 10.0 mi ENE 6.9 mph - N/A   Mostly Cloudy
11:53 PM 46.9 °F - 42.1 °F 83% 29.85 in 10.0 mi ENE 8.1 mph - N/A   Mostly Cloudy